Location: *
(46.0770°N, 1.6444°E)
Time: 15:10:31
(UTC+00:00)

Cosmos 2227 Rocket - Pass Details

Date: 16 September 2019
Orbit: 837 x 847 km, 71.0° (Epoch: 16 October)

Event Time Altitude Azimuth Distance (km) Brightness Sun altitude
Exits shadow 21:20:24 40° 253° (WSW) 1,231 3.1 -31.5°
Maximum altitude 21:22:02 53° 302° (WNW) 1,036 2.8 -31.7°
Drops below altitude 10° 21:27:35 10° 19° (NNE) 2,475 4.9 -32.4°
Sets 21:30:07 0° 24° (NNE) 3,415 5.6 -32.7°
